Regional Weather Roundup
Issued by NWS

Home | Current Version | Previous Version | Graphics & Text | Print | Product List | Glossary On
Versions: 1 2 3 4 5 6 7 8 9 10 11 12 13 14 15 16 17 18 19 20 21 22 23 24 25 26 27 28 29 30 31 32 33 34 35 36 37 38 39 40 41 42 43 44 45 46 47 48 49 50
000
ASUS43 KMPX 230501
RWRMN
WEATHER ROUNDUP FOR MINNESOTA
NATIONAL WEATHER SERVICE TWIN CITIES/CHANHASSEN MN
1200 AM CDT WED APR 23 2014


NOTE: "FAIR" INDICATES FEW OR NO CLOUDS BELOW 12,000 FEET WITH NO
SIGNIFICANT WEATHER AND/OR OBSTRUCTIONS TO VISIBILITY. N/A MEANS
CURRENT SKY AND/OR WEATHER CONDITIONS ARE NOT AVAILABLE.

MNZ060>063-068>070-230600-
   Twin Cities Metro

CITY           SKY/WX    TMP DP  RH WIND       PRES   REMARKS
TWIN CITIES    PTCLDY    46  25  43 E7        30.08S
ST PAUL        CLEAR     44  25  47 S7        30.09S
CRYSTAL        PTCLDY    46  23  40 SE5       30.07S
BLAINE         PTCLDY    43  28  56 E5        30.08S
EDEN PRAIRIE   PTCLDY    47  24  40 E7        30.07S
LAKEVILLE      CLEAR     41  28  60 CALM      30.08S
SOUTH ST PAUL  PTCLDY    46  30  52 CALM      30.09S
LAKE ELMO      FAIR      36  32  87 CALM      30.10R
$$
MNZ001>005-007-008-013>017-022>024-027-028-230600-
   Northwest Minnesota

CITY           SKY/WX    TMP DP  RH WIND       PRES   REMARKS
BEMIDJI        CLEAR     32  23  69 E3        30.04S
HALLOCK        CLOUDY    43  30  61 E13       30.00S
ROSEAU         PTCLDY    39  25  56 E9        30.05S
WARROAD        CLEAR     36  25  64 E5        30.06S
THIEF RVR FALL PTCLDY    41  25  52 E9        30.03R
CROOKSTON      PTCLDY    46  27  46 SE13      30.01S
FOSSTON        PTCLDY    41  25  52 SE9       30.03S
DETROIT LAKES  MOCLDY    46  27  46 SE10      30.02F
MOORHEAD       MOCLDY    48  34  57 SE10      29.99S
PARK RAPIDS    FAIR      41  24  51 E5        30.03S
$$
MNZ006-009>011-018-025>026-230600-
   North Central Minnesota

CITY           SKY/WX    TMP DP  RH WIND       PRES   REMARKS
BAUDETTE       CLEAR     36  25  64 E6        30.07S
FLAG ISLAND    CLEAR     30  25  80 CALM      30.06S
INTL FALLS     CLEAR     28  22  78 CALM      30.08R
WASKISH        CLEAR     37  23  56 E6        30.06F
BIG FORK       CLEAR     30  21  69 CALM      30.08F
LONGVILLE      CLEAR     28  23  80 CALM      30.06S
GRAND RAPIDS   CLEAR     30  19  64 SE3       30.07S
CRANE LAKE     CLEAR     23  18  80 CALM      30.11S
ORR            CLEAR     28  21  74 CALM      30.07S
COOK           CLEAR     28  25  86 CALM      30.10R
$$
MNZ012-019>021-037-230600-
   Northeast Minnesota

CITY           SKY/WX    TMP DP  RH WIND       PRES   REMARKS
DULUTH         CLEAR     34  20  56 CALM      30.08S
ELY            CLEAR     28  21  74 CALM      30.09S
HIBBING        CLEAR     28  22  78 CALM      30.08S
EVELETH        CLEAR     28  23  80 CALM      30.10S
DULUTH HARBOR  CLEAR     34  28  80 CALM      30.11S
TWO HARBORS    CLEAR     28  21  74 CALM      30.09R
SILVER BAY     CLEAR     27  25  93 CALM      30.09R
GRAND MARAIS     N/A     29  26  89 NW5       30.13R WCI  24
G MARAIS ARPRT CLEAR     25  19  80 CALM      30.09S
$$
MNZ029>031-032-039>041-046>048-054>057-064-230600-
   West Central Minnesota

CITY           SKY/WX    TMP DP  RH WIND       PRES   REMARKS
FERGUS FALLS   PTCLDY    48  28  46 SE10      29.97S
WHEATON        MOCLDY    52  37  58 SE12      29.99F
MORRIS         CLOUDY    50  34  53 SE14      29.98F
ALEXANDRIA     PTCLDY    46  28  49 SE10      30.03S
ELBOW LAKE     FAIR      48  34  59 E9        29.99F
WADENA         PTCLDY    43  25  49 E5        30.03F
GLENWOOD       PTCLDY    43  32  65 E12       30.03S
APPLETON       CLOUDY    52  34  50 SE14      29.98F
BENSON         MOCLDY    50  34  53 SE12      30.01F
ORTONVILLE     CLOUDY    52  34  50 SE16      29.97S
MADISON        CLOUDY    55  36  47 SE14G21   29.98F
WILLMAR        FAIR      48  34  57 E10       30.04F
$$
MNZ033>034-036-042>043-049>051-058-059-230600-
   Central Minnesota

CITY           SKY/WX    TMP DP  RH WIND       PRES   REMARKS
ST CLOUD       PTCLDY    46  25  43 E6        30.06S
SAUK CENTRE    FAIR      44  28  55 E6        30.04F
PAYNESVILLE    PTCLDY    46  27  47 E8        30.04F
AITKIN         CLEAR     34  27  75 CALM      30.06S
PINE RIVER     CLEAR     37  27  65 CALM      30.09S
BRAINERD       CLEAR     40  26  57 CALM      30.07R
STAPLES        PTCLDY    41  25  52 CALM      30.05S
LONG PRAIRIE   FAIR      43  27  52 E6        30.05S
LITTLE FALLS   PTCLDY    43  27  52 E6        30.06S
LITCHFIELD     PTCLDY    45  32  61 E9        30.05F
BUFFALO        PTCLDY    44  28  52 E5        30.08S
MAPLE LAKE     PTCLDY    42  30  63 CALM      30.07S
$$
MNZ037-044-045-052-053-230600-
   East Central Minnesota

CITY           SKY/WX    TMP DP  RH WIND       PRES   REMARKS
PRINCETON      PTCLDY    43  25  49 CALM      30.08S
MORA           CLEAR     32  28  86 CALM      30.10S
CAMBRIDGE      PTCLDY    37  27  65 CALM      30.07S
RUSH CITY      PTCLDY    35  26  70 CALM      30.09R
MOOSE LAKE     CLEAR     32  23  69 CALM      30.07R
HINCKLEY       FAIR      32  27  80 CALM      30.09R
CLOQUET        CLEAR     30  21  69 CALM      30.09R
MCGREGOR       CLEAR     36  28  75 CALM      30.07F
$$
MNZ071>073-080-081-089-090-097-098-230600-
   Southwest Minnesota

CITY           SKY/WX    TMP DP  RH WIND       PRES   REMARKS
MONTEVIDEO     CLOUDY    52  34  50 S16       30.00F
GRANITE FALLS  CLOUDY    51  32  49 E9        30.02F
CANBY          CLOUDY    52  35  51 SE17      29.98F
MARSHALL       CLOUDY    54  32  43 SE15      29.99R
REDWOOD FALLS  CLOUDY    52  30  43 SE9       30.02F
OLIVIA         CLOUDY    50  32  50 SE9       30.02F
PIPESTONE      CLOUDY    55  34  44 SE12      29.96F
WINDOM         CLOUDY    52  32  46 E10       30.03S
WORTHINGTON    CLOUDY    54  32  43 E15       30.03F
JACKSON        CLOUDY    52  32  46 E8        30.04S
TRACY          CLOUDY    53  33  46 SE12      30.01S
SLAYTON        CLOUDY    52  32  46 SE17      30.01S
$$
MNZ065>067-074>077-082>085-091>093-230600-
   South Central Minnesota

CITY           SKY/WX    TMP DP  RH WIND       PRES   REMARKS
MANKATO        PTCLDY    48  28  46 E12       30.06S
NEW ULM        CLOUDY    50  28  43 SE13      30.04S
ST JAMES       CLOUDY    52  34  50 E8        30.05F
FAIRMONT       CLOUDY    50  34  53 SE10      30.06F
GLENCOE        PTCLDY    45  29  54 E7        30.06S
FARIBAULT      PTCLDY    46  27  46 E3        30.08S
OWATONNA       PTCLDY    41  30  65 E7        30.08S
WASECA         PTCLDY    43  30  61 E8        30.08F
ALBERT LEA     MOCLDY    46  30  53 E9        30.06F
$$
MNZ078>079-086>088-094>096-230600-
   Southeast Minnesota

CITY           SKY/WX    TMP DP  RH WIND       PRES   REMARKS
ROCHESTER      PTCLDY    45  24  43 E7        30.09R
RED WING       PTCLDY    36  27  69 E3        30.09S
DODGE CENTER   PTCLDY    43  32  65 E6        30.08S
WINONA         CLEAR     41  32  70 SW3       30.12R
AUSTIN         PTCLDY    43  32  65 E5        30.07S
PRESTON        CLEAR     45  24  45 CALM      30.09S
$$
ABBREVIATIONS USED IN REMARKS
   TC - TEMPERATURES IN CELSIUS
  WCI - WIND CHILL INDEX
   HX - HEAT INDEX
  VSB - VISIBILITY
$$


USA.gov is the U.S. government's official web portal to all federal, state and local government web resources and services.